Temp
95 92 92 95 93 93 88 87 88 90 85 82 82 82 81 81 82 82 80 82 81 80 84 77 85 85 83 84 83 83 82 83 83
91 93 96 96 95 94 93 92 90 89 85 84 84 84 83 81 80 81 83 82 85 85 78 77 82 84 84 84 83 83 83 83 82
88 90 91 93 94 94 96 97 94 92 89 86 86 86 85 83 82 81 82 81 82 84 83 81 74 78 81 83 84 85 83 82 82
87 87 88 90 92 96 96 98 97 92 90 87 87 87 85 84 83 83 83 84 84 84 85 78 72 72 72 80 84 83 81 81 84
85 86 87 88 88 89 88 90 92 90 90 88 88 88 86 85 84 83 84 82 85 85 84 84 72 73 69 79 83 81 81 81 83
83 83 84 85 86 85 85 85 84 83 84 88 91 88 88 87 86 85 85 84 84 84 83 81 82 79 79 80 82 81 80 80 79
83 83 82 82 83 83 83 82 81 80 82 80 83 89 88 86 86 87 87 86 83 85 81 80 82 81 81 81 82 82 82 80 79
81 80 81 81 81 81 82 82 82 83 83 81 80 76 83 83 86 86 85 84 84 83 83 82 81 81 82 83 83 86 81 80 78
79 79 80 81 82 82 83 82 82 83 83 82 81 76 76 78 80 82 81 82 83 81 82 81 80 81 81 82 87 79 76 80 82
79 80 81 80 81 82 83 82 83 81 81 83 81 79 79 76 77 80 79 80 80 80 80 81 80 80 81 81 82 75 72 75 85
81 81 81 81 83 83 83 84 83 81 81 80 80 80 79 79 76 74 78 78 78 79 79 79 80 79 80 80 82 73 69 72 81
82 81 82 83 84 82 81 81 81 80 79 78 78 79 79 79 78 76 76 76 77 77 78 78 80 80 79 79 80 70 68 69 79
82 83 83 82 83 83 82 80 81 79 78 78 76 78 79 80 78 74 72 75 76 76 77 78 80 80 81 77 80 70 66 69 81
82 82 82 83 83 81 81 81 82 78 77 76 77 78 78 79 78 73 72 71 72 73 74 76 76 77 79 80 79 79 65 63 78
81 81 81 81 78 79 80 80 78 75 73 76 78 78 76 76 76 75 72 67 65 65 67 71 74 75 75 76 81 70 66 62 65
78 78 78 79 77 77 78 78 77 75 74 75 74 75 75 74 75 76 72 69 67 65 64 65 65 71 73 74 76 80 65 61 61
76 77 76 77 74 73 72 74 75 75 75 75 74 72 73 74 74 74 73 71 69 66 65 63 63 64 68 67 70 75 80 70 65
74 73 74 74 72 71 71 73 73 75 74 74 71 71 72 73 76 76 75 72 72 67 68 66 65 65 64 63 63 65 63 72 75
72 70 71 70 70 69 70 71 71 72 72 72 70 71 72 73 78 79 80 80 72 59 59 56 55 55 59 64 57 55 55 55 56
67 70 70 69 67 67 69 69 69 71 71 71 70 68 69 71 72 77 78 79 74 73 65 54 50 48 50 51 54 52 52 50 52
MSLP
1001.88 1002.74 1003.39 1003.55 1004.26 1005.04 1005.91 1006.74 1007.43 1008.06 1009.05 1009.99 1010.70 1011.23 1011.71 1012.09 1012.34 1012.49 1012.59 1012.60 1013.01 1013.21 1013.10 1013.29 1013.18 1013.60 1014.07 1014.38 1014.43 1014.45 1014.55 1014.46 1014.42
1002.40 1002.81 1002.79 1003.11 1003.62 1004.37 1005.20 1005.97 1006.91 1007.80 1008.78 1009.54 1010.19 1010.65 1011.22 1011.72 1011.97 1011.99 1011.81 1011.90 1012.26 1012.74 1012.79 1012.97 1013.66 1013.49 1013.49 1013.76 1014.27 1014.76 1014.62 1014.62 1014.54
1003.53 1003.87 1004.00 1003.96 1003.87 1003.98 1004.33 1005.02 1006.17 1007.16 1008.07 1009.00 1009.63 1009.96 1010.61 1011.15 1011.45 1011.62 1011.53 1011.65 1011.98 1012.13 1012.57 1013.17 1013.60 1013.53 1014.26 1013.67 1014.04 1014.39 1014.80 1014.66 1014.50
1004.38 1004.86 1005.00 1005.03 1004.86 1004.57 1004.39 1004.29 1005.11 1006.41 1007.39 1008.27 1009.06 1009.52 1009.94 1010.40 1010.84 1011.11 1011.20 1011.22 1011.55 1011.89 1012.10 1012.51 1013.58 1013.98 1014.68 1013.38 1013.69 1014.40 1014.86 1014.72 1014.45
1005.69 1005.85 1005.95 1006.00 1006.14 1006.09 1005.86 1005.52 1005.53 1005.88 1006.70 1007.59 1008.21 1008.67 1009.27 1009.77 1010.22 1010.53 1010.65 1011.00 1011.15 1011.58 1011.85 1011.80 1012.41 1012.90 1013.21 1013.44 1013.59 1014.27 1014.71 1014.64 1014.34
1006.65 1006.92 1007.00 1006.95 1007.11 1007.28 1007.24 1007.22 1007.30 1007.38 1007.25 1007.26 1007.58 1007.99 1008.59 1009.07 1009.46 1009.83 1009.92 1010.27 1010.85 1011.24 1011.73 1012.09 1012.28 1012.63 1013.04 1013.09 1013.57 1013.89 1014.36 1014.17 1013.97
1007.01 1007.37 1007.72 1007.97 1008.05 1008.19 1008.32 1008.38 1008.41 1008.39 1008.19 1008.24 1007.87 1007.36 1007.81 1008.17 1008.65 1009.02 1009.37 1009.48 1010.08 1010.59 1011.10 1011.94 1012.02 1012.13 1012.54 1012.85 1013.23 1013.45 1013.47 1013.56 1013.49
1007.57 1007.87 1008.10 1008.44 1008.62 1008.73 1008.71 1008.77 1008.72 1008.59 1008.51 1008.42 1008.52 1008.40 1007.88 1007.81 1007.88 1008.27 1008.72 1009.00 1009.14 1009.78 1010.27 1010.97 1011.45 1011.72 1011.88 1012.17 1012.37 1012.39 1012.59 1012.77 1012.77
1007.79 1008.17 1008.48 1008.81 1008.92 1008.88 1008.80 1008.97 1008.91 1008.84 1008.73 1008.79 1008.76 1008.82 1008.68 1008.28 1008.03 1007.98 1008.27 1008.67 1008.76 1008.96 1009.47 1009.99 1010.69 1010.89 1011.04 1010.97 1011.03 1011.02 1011.26 1011.52 1011.96
1007.72 1008.07 1008.49 1008.84 1008.94 1008.80 1008.73 1008.84 1008.78 1008.84 1008.82 1008.81 1008.82 1008.79 1008.67 1008.56 1008.25 1008.27 1008.45 1008.58 1008.79 1008.96 1008.99 1009.21 1009.67 1010.15 1010.28 1010.29 1010.36 1010.27 1010.38 1010.72 1011.08
1007.60 1008.15 1008.54 1008.70 1008.61 1008.51 1008.55 1008.66 1008.83 1008.91 1008.91 1008.77 1008.64 1008.51 1008.39 1008.39 1008.25 1008.24 1008.12 1008.44 1008.34 1008.35 1008.53 1008.65 1008.76 1009.24 1009.60 1009.84 1009.77 1009.93 1010.17 1010.28 1010.71
1008.32 1008.45 1008.47 1008.39 1008.34 1008.40 1008.51 1008.57 1008.64 1008.74 1008.73 1008.58 1008.39 1008.13 1007.97 1007.81 1007.85 1007.80 1007.73 1007.65 1007.56 1007.47 1007.85 1007.97 1007.95 1008.30 1008.82 1009.11 1009.26 1009.38 1009.71 1010.22 1010.37
1008.49 1008.48 1008.41 1008.33 1008.27 1008.19 1008.21 1008.20 1008.17 1008.20 1008.22 1008.28 1008.16 1007.86 1007.59 1007.41 1007.48 1007.43 1007.47 1007.20 1007.12 1007.11 1007.40 1007.40 1007.40 1007.56 1007.94 1008.20 1008.37 1008.68 1008.99 1009.46 1009.72
1008.42 1008.35 1008.24 1007.94 1007.79 1007.66 1007.58 1007.55 1007.48 1007.55 1007.68 1007.71 1007.72 1007.59 1007.35 1007.04 1006.79 1006.89 1007.13 1007.23 1007.10 1006.92 1007.05 1007.23 1007.11 1007.24 1007.28 1007.51 1007.66 1007.73 1008.12 1008.59 1009.00
1008.22 1007.96 1007.87 1007.86 1007.78 1007.61 1007.47 1007.48 1007.30 1007.14 1007.27 1007.48 1007.19 1007.05 1006.95 1006.72 1006.42 1006.28 1006.46 1006.41 1006.11 1006.81 1007.60 1007.41 1006.66 1006.43 1006.74 1006.98 1006.74 1006.79 1006.98 1007.50 1007.95
1008.40 1008.31 1008.14 1008.00 1007.71 1007.32 1007.24 1007.21 1007.13 1006.67 1006.68 1007.00 1006.93 1006.67 1006.42 1006.21 1006.00 1005.69 1005.68 1005.77 1006.01 1006.91 1005.66 1005.05 1007.52 1006.56 1006.21 1005.89 1005.89 1005.78 1005.85 1006.20 1006.79
1008.72 1008.56 1008.34 1008.15 1007.90 1007.44 1007.20 1007.11 1006.82 1006.34 1006.12 1006.10 1006.16 1006.15 1005.87 1005.65 1005.32 1005.23 1005.15 1005.22 1005.12 1005.61 1005.73 1006.84 1003.63 1006.40 1006.93 1006.61 1006.24 1005.97 1004.96 1005.49 1006.21
1009.01 1008.86 1008.63 1008.33 1007.97 1007.50 1007.05 1006.67 1006.26 1005.93 1005.69 1005.56 1005.47 1005.36 1005.24 1004.86 1004.49 1004.07 1004.10 1004.03 1004.20 1004.22 1004.32 1003.99 1005.23 1005.35 1005.44 1005.33 1006.13 1006.49 1006.72 1005.31 1004.79
1009.28 1009.04 1008.69 1008.22 1007.83 1007.36 1006.67 1006.16 1005.62 1005.32 1005.09 1004.94 1004.83 1004.61 1004.41 1004.09 1003.40 1002.83 1002.47 1002.33 1002.83 1002.80 1003.37 1003.56 1003.70 1004.09 1004.34 1003.78 1005.31 1006.27 1006.02 1005.52 1003.58
1009.60 1009.14 1008.65 1008.12 1007.69 1007.11 1006.21 1005.55 1005.09 1004.58 1004.33 1004.17 1004.05 1003.93 1003.70 1003.46 1002.97 1002.37 1001.60 1001.27 1001.39 1002.03 1002.41 1003.51 1003.71 1003.11 1003.09 1003.15 1004.57 1005.77 1004.94 1006.29 1004.88
Wind_Speed
13 15 13 11 12 9 12 11 10 9 12 12 11 11 10 8 9 7 7 10 7 5 5 6 12 10 11 7 5 6 5 4 3
13 14 2 13 14 12 13 12 10 10 13 11 12 13 10 9 8 9 9 8 7 4 2 2 13 10 9 9 8 9 6 4 3
11 10 10 11 11 3 13 14 15 12 13 12 12 11 11 10 11 11 10 7 8 7 7 9 7 6 5 7 7 5 5 6 6
12 10 10 10 10 10 6 9 11 14 12 12 11 12 11 12 11 12 12 9 9 8 5 10 13 2 11 6 5 5 6 8 2
12 12 10 11 11 12 14 13 11 12 14 13 13 11 10 12 12 12 13 12 10 9 6 3 10 13 15 12 5 7 8 7 8
11 11 11 11 11 11 11 13 13 15 1 11 12 13 13 13 13 13 14 15 12 10 9 8 8 15 14 7 8 7 9 8 7
10 10 10 10 10 9 8 8 8 10 11 9 9 8 14 14 14 14 14 13 14 13 12 14 12 11 13 12 11 10 10 8 7
8 9 10 9 8 6 7 7 7 7 8 7 8 10 7 6 12 12 11 13 10 14 11 12 13 12 12 14 13 10 11 11 8
7 6 7 7 8 8 6 6 7 7 5 8 7 4 8 9 7 9 10 10 10 10 12 12 12 13 13 11 10 15 16 11 11
7 1 6 8 9 7 4 6 6 7 8 7 6 9 7 7 7 9 11 12 10 11 11 11 13 13 13 13 12 13 13 16 10
9 10 9 8 9 8 8 9 10 8 10 8 8 8 8 9 11 8 11 12 12 12 10 12 12 13 14 14 12 13 12 13 9
9 11 10 9 11 10 8 8 8 8 10 11 9 10 9 7 7 10 9 11 14 13 11 12 14 13 14 15 15 15 15 11 9
12 13 12 11 11 10 11 10 9 9 9 10 12 11 10 7 6 5 8 9 11 11 13 14 12 14 15 17 16 15 16 14 10
13 12 14 13 11 11 10 10 9 9 9 10 10 10 11 11 7 9 9 6 6 8 12 14 14 14 14 16 16 16 17 18 13
14 14 14 13 13 14 10 11 11 12 10 10 10 9 11 11 13 7 6 8 7 6 8 17 16 13 12 12 15 16 16 19 21
15 17 14 14 14 15 11 11 13 13 11 12 11 11 11 10 15 12 8 8 9 7 6 18 10 11 10 11 11 13 18 21 21
15 14 14 15 17 15 15 14 15 15 13 12 10 12 12 11 13 13 10 9 7 7 10 12 13 14 10 7 9 11 12 10 11
14 15 15 14 15 16 17 16 16 15 15 13 12 12 11 11 13 14 12 11 10 10 11 11 12 16 14 8 9 11 18 14 11
12 13 15 16 16 17 17 17 15 15 13 13 12 12 9 9 11 11 11 10 10 15 13 19 20 18 7 3 3 18 24 27 16
15 15 15 15 16 19 18 16 15 15 13 12 12 12 11 10 11 11 10 11 8 9 7 9 11 11 11 10 13 11 25 9 3
Wind_Direction
139 157 178 206 164 184 163 186 185 172 161 168 180 184 193 193 209 195 215 206 198 227 211 203 183 185 180 207 199 237 244 238 218
40 34 114 184 179 182 178 172 170 182 166 178 184 192 189 192 201 223 220 203 204 205 207 308 213 174 180 183 196 222 222 245 238
72 49 28 10 355 266 174 180 175 183 170 182 197 200 185 192 199 218 241 203 211 211 180 205 72 351 222 176 199 206 211 231 230
83 66 48 31 5 349 334 188 178 172 178 179 200 201 190 196 196 211 230 232 196 216 196 116 133 74 312 244 190 216 216 253 260
74 68 48 50 31 12 6 10 3 171 176 183 193 201 197 200 194 208 216 235 213 202 184 192 148 152 217 235 203 201 228 230 250
84 69 57 52 47 27 22 9 10 2 13 185 200 196 195 201 201 206 220 215 235 200 190 192 209 184 205 206 220 226 221 219 240
80 71 68 46 42 42 31 18 6 360 360 6 328 209 207 199 203 208 216 225 209 224 201 201 208 194 198 196 207 219 213 207 212
77 62 50 44 36 24 22 17 2 354 347 354 358 349 295 240 202 207 214 221 222 210 206 203 210 218 210 196 201 210 209 207 203
95 62 44 18 1 349 9 355 341 332 331 336 331 320 309 314 277 221 226 229 226 214 214 201 209 216 223 212 212 206 215 198 196
128 111 31 353 330 312 318 316 317 331 336 314 307 312 308 292 281 254 246 239 235 233 224 211 211 223 226 224 219 225 206 206 208
32 7 344 325 308 314 322 324 323 318 310 301 296 283 281 287 283 241 236 236 236 229 224 226 219 216 225 231 228 212 193 193 206
346 330 323 322 329 324 312 291 283 287 294 297 288 280 284 269 280 271 250 238 231 226 224 221 223 222 220 221 230 215 199 185 201
329 322 321 318 307 308 306 296 290 282 277 283 288 290 292 288 245 242 261 264 250 241 229 228 224 220 223 226 224 216 209 198 221
314 312 307 304 296 289 288 281 284 283 273 269 276 290 298 292 250 229 244 254 272 277 255 235 229 232 226 228 223 223 205 201 215
302 309 321 333 328 318 337 322 301 288 290 310 283 271 279 286 281 234 239 231 246 19 335 271 242 223 232 233 228 221 207 199 206
332 320 318 313 302 294 304 303 302 290 285 285 278 279 271 270 276 276 221 227 230 228 248 269 303 273 235 231 230 230 212 197 206
313 318 315 321 323 317 310 307 299 290 290 273 277 275 270 265 265 270 251 243 241 202 218 212 227 254 288 292 305 266 230 210 202
328 322 311 306 301 299 293 292 289 286 284 284 278 270 264 266 258 257 254 220 218 219 222 219 199 224 221 217 270 278 306 232 194
314 316 312 303 305 299 293 288 291 288 283 274 275 272 267 262 263 255 259 245 215 227 205 200 205 204 222 107 209 288 287 245 185
326 314 313 319 319 311 299 290 290 288 277 271 272 269 266 268 269 277 272 256 231 227 203 210 263 180 165 168 236 251 294 264 302